sat.trackr.live / text

‹ back to catalog

GEESAT-3 07

NORAD 61017 · 2024-159G

PAYLOAD ACTIVE UNKNOWN

§ Identity

Operator
Country
PRC
Launch date
2024-09-05
Launch site
TAISC
Launch vehicle
Mass (kg)
RCS (m²)

External: N2YO · Heavens-Above · Gunter

§ Orbital elements

Epoch: 2026-09-22T20:26:11.004000Z

Period
97.00 min
Inclination
49.9956°
Eccentricity
0.0010596
Mean motion
14.84516225 rev/d
Perigee alt
607.7 km
Apogee alt
622.5 km
Semi-major
6,993.2 km
B*
1.4667e-4
RAAN
349.8015°
Arg perigee
48.0810°
Mean anomaly
312.1030°
Rev number
11,065

§ Raw data

GEESAT-3 071 61017U 24159G   26265.85151625  .00001020  00000+0  14667-3 0  99992 61017  49.9956 349.8015 0010596  48.0810 312.1030 14.84516225110652

JSON: /api/v1/satellites/61017 · /tle

For live sub-satellite position, see the globe view (requires WebGL).

§ Visibility from observer

Set your observer location to see the next 7 days of passes ≥ 10°. The values pass through the URL so the page stays shareable.

No JS? Fill the form by hand. The geolocation button needs JavaScript.